Location: Carabito
(9.8355°N, 67.9249°W)
Time: 21:18:53
(UTC+00:00)

SL-8 R/B - Pass Details

Date: 23 May 2024
Orbit: 651 x 662 km, 48.4° (Epoch: 25 June)

Event Time Altitude Azimuth Distance (km) Brightness Sun altitude
Rises 09:23:04 0° 312° (NW) 2,972 6.8 -11.5°
Reaches altitude 10° 09:25:26 10° 308° (NW) 2,062 6.0 -11.0°
Maximum altitude 09:30:04 52° 232° (SW) 816 3.8 -9.9°
Drops below altitude 10° 09:34:43 10° 155° (SSE) 2,068 6.3 -8.9°
Sets 09:37:06 0° 150° (SSE) 2,980 7.2 -8.3°
